Weather in Svyatoslavka

Russia / Kemerovo Oblast     56°26′03″N   86°48′29″E
temp.,
°C
wind,
m/s
gust,
m/s
humid.,
%
clouds,
%
prec.,
mm/h
press.,
hPa
HPBL,
m
13 june, sun
sun1301:00+9w336140 0.0 101539
04:00+7w347199 0.0 101454
07:00+10wsw3770100 0.0 1014158
10:00+11wsw4980100 0.1 1013266
13:00+11wsw51197100 1.0 1012500
16:00+12w51197100 1.9 1012585
19:00+12wnw4898100 2.1 1012414
22:00+12nnw499727 0.1 1014355
14 june, mon
mon1401:00+11nnw41097100 0.1 1015362
04:00+7nnw37965 0.0 1016122
07:00+9n24891 0.0 1018135
10:00+14n336630 0.0 1019622
13:00+17nnw335472 0.0 10191501
16:00+18nw34505 0.0 10191511
19:00+18wnw35585 0.0 1019623
22:00+12wnw33650 0.0 101924
15 june, tue
tue1501:00+10wnw22715 0.0 101913
04:00+9w227515 0.0 101920
07:00+13wsw237212 0.0 1019105
10:00+19sw346098 0.0 1018537
13:00+22sw4651100 0.0 10161354
16:00+24wsw475133 0.0 10142228
19:00+20wsw5106644 0.1 1013411
22:00+17sw6128514 0.4 1013358
16 june, wed
wed1601:00+15wsw412938 1.6 1012310
04:00+13wsw4119627 0.0 1012225
07:00+15wsw499131 0.0 1012236
10:00+21sw57706 0.0 1012614
13:00+24wsw466755 0.4 10111319
16:00+22ssw477765 2.9 1010410
19:00+22sw497569 3.1 1009350
22:00+16wnw3793100 2.8 1010156
17 june, thu
thu1701:00+14sw349592 2.9 101058
04:00+14ssw379560 0.0 1009122
07:00+16sw410947 0.0 1009318
10:00+21wsw587522 0.1 1008883
13:00+20w498596 1.9 1007530
16:00+20wnw588996 1.9 1007536
19:00+19nw249239 4.6 1006240
22:00+16w22915 0.7 100616